SEH4DT LGAL-LGAV

Flight info

Callsign SEH4DT
Flight time N/A
Altitude 19000
Route LMO G33 NEVRA
Aircraft AT76/M-SDFGIRY/S

Departure

Time 2026-04-30 15:00
Airport Alexandroupoli Democritus Airport (LGAL)

Arrival

Time N/A
Airport Athens Eleftherios Venizelos International Airport (LGAV)
Time Latitude Longitude Altitude Speed Heading
2026-04-30 14:43 40.85593 25.94542 17 ft 0 kts 344°
2026-04-30 14:51 40.85586 25.94543 17 ft 0 kts 309°
2026-04-30 14:52 40.85584 25.94545 20 ft 0 kts 282°
2026-04-30 14:52 40.85583 25.94546 20 ft 0 kts 274°
2026-04-30 14:55 40.85583 25.94532 17 ft 14 kts 261°
2026-04-30 14:55 40.85524 25.94496 17 ft 2 kts 115°
2026-04-30 14:55 40.85504 25.94438 18 ft 7 kts 14°
2026-04-30 14:56 40.85368 25.94398 17 ft 16 kts 25°
2026-04-30 14:56 40.85258 25.94283 18 ft 0 kts 66°
2026-04-30 14:58 40.85387 25.94786 18 ft 80 kts 75°
2026-04-30 14:59 40.85990 25.96781 91 ft 158 kts 68°
2026-04-30 15:00 40.86051 26.01244 1536 ft 185 kts 132°
2026-04-30 15:00 40.83504 26.01244 2583 ft 212 kts 219°
2026-04-30 15:01 40.82147 25.97762 3598 ft 219 kts 251°
2026-04-30 15:01 40.81800 25.96479 3934 ft 221 kts 252°
2026-04-30 15:01 40.80287 25.92190 5117 ft 222 kts 241°
2026-04-30 15:02 40.79265 25.90707 5630 ft 218 kts 221°
2026-04-30 15:02 40.78078 25.89461 6135 ft 218 kts 218°
2026-04-30 15:03 40.74189 25.86419 7615 ft 216 kts 211°
2026-04-30 15:03 40.71526 25.84589 8632 ft 216 kts 205°
2026-04-30 15:04 40.68701 25.83223 9670 ft 216 kts 204°
2026-04-30 15:04 40.64515 25.81113 11147 ft 214 kts 206°
2026-04-30 15:05 40.60390 25.78951 12667 ft 212 kts 206°
2026-04-30 15:06 40.57661 25.77524 13725 ft 210 kts 206°
2026-04-30 15:06 40.54959 25.76115 14691 ft 207 kts 207°
2026-04-30 15:07 40.52300 25.74728 15668 ft 203 kts 208°
2026-04-30 15:07 40.49705 25.73376 16680 ft 197 kts 209°
2026-04-30 15:08 40.47615 25.72290 17545 ft 191 kts 210°
2026-04-30 15:08 40.43671 25.70245 19021 ft 184 kts 212°
2026-04-30 15:09 40.41546 25.69078 19098 ft 212 kts 212°
2026-04-30 15:09 40.38621 25.67510 19122 ft 241 kts 210°
2026-04-30 15:10 40.35368 25.65825 19123 ft 261 kts 209°
2026-04-30 15:11 40.28312 25.62157 19116 ft 282 kts 208°
2026-04-30 15:11 40.24640 25.60282 19114 ft 288 kts 207°
2026-04-30 15:12 40.18995 25.57406 19112 ft 292 kts 208°
2026-04-30 15:13 40.15200 25.55445 19110 ft 294 kts 207°
2026-04-30 15:14 40.07567 25.51508 19102 ft 296 kts 207°
2026-04-30 15:14 40.01847 25.48566 19097 ft 296 kts 207°
2026-04-30 15:16 39.92242 25.43631 19095 ft 297 kts 207°
2026-04-30 15:17 39.84538 25.39684 19094 ft 298 kts 207°
2026-04-30 15:18 39.74892 25.34756 19094 ft 298 kts 207°
2026-04-30 15:19 39.69099 25.31805 19097 ft 298 kts 207°